Hourly Weather Munozero

Today, 29 September, Wednesday

Time Temperature Precipitation Wind Pressure Humidity
00:00 +7°C° 0 mm 1 mps 769 mmHg 94%
01:00 +6°C° 0 mm 1 mps 769 mmHg 95%
02:00 +6°C° 0 mm 1 mps 770 mmHg 95%
03:00 +6°C° 0 mm 1 mps 770 mmHg 95%
04:00 +6°C° 0 mm 1 mps 769 mmHg 96%
05:00 +6°C° 0 mm 1 mps 769 mmHg 96%
06:00 +7°C° 0 mm 1 mps 769 mmHg 92%
07:00 +6°C° 0 mm 2 mps 769 mmHg 88%
08:00 +7°C° 0 mm 2 mps 769 mmHg 85%
09:00 +9°C° 0 mm 2 mps 769 mmHg 79%
10:00 +10°C° 0 mm 2 mps 769 mmHg 73%
11:00 +12°C° 0 mm 1 mps 769 mmHg 67%
12:00 +13°C° 0 mm 1 mps 769 mmHg 65%
13:00 +13°C° 0 mm 2 mps 769 mmHg 64%
14:00 +14°C° 0 mm 2 mps 769 mmHg 62%
15:00 +12°C° 0 mm 1 mps 769 mmHg 68%
16:00 +11°C° 0 mm 1 mps 768 mmHg 74%
17:00 +10°C° 0 mm 1 mps 768 mmHg 80%
18:00 +9°C° 0 mm 1 mps 768 mmHg 84%
19:00 +9°C° 0 mm 1 mps 768 mmHg 87%
20:00 +8°C° 0 mm 1 mps 768 mmHg 90%
21:00 +7°C° 0 mm 1 mps 768 mmHg 91%
22:00 +7°C° 0 mm 1 mps 769 mmHg 93%
23:00 +7°C° 0 mm 1 mps 769 mmHg 94%

Tomorrow, 30 September, Thursday

Time Temperature Precipitation Wind Pressure Humidity
00:00 +6°C° 0 mm 1 mps 769 mmHg 94%
01:00 +6°C° 0 mm 1 mps 769 mmHg 95%
02:00 +6°C° 0 mm 1 mps 769 mmHg 95%
03:00 +5°C° 0 mm 1 mps 769 mmHg 95%
04:00 +5°C° 0 mm 1 mps 769 mmHg 95%
05:00 +5°C° 0 mm 1 mps 769 mmHg 95%
06:00 +6°C° 0 mm 1 mps 769 mmHg 91%
07:00 +7°C° 0 mm 1 mps 769 mmHg 87%
08:00 +7°C° 0 mm 1 mps 769 mmHg 83%
09:00 +9°C° 0 mm 1 mps 769 mmHg 77%
10:00 +10°C° 0 mm 1 mps 769 mmHg 71%
11:00 +12°C° 0 mm 1 mps 769 mmHg 65%
12:00 +12°C° 0 mm 1 mps 768 mmHg 63%
13:00 +12°C° 0 mm 1 mps 768 mmHg 61%
14:00 +13°C° 0 mm 1 mps 768 mmHg 60%
15:00 +11°C° 0 mm 1 mps 768 mmHg 66%
16:00 +10°C° 0 mm 1 mps 767 mmHg 72%
17:00 +9°C° 0 mm 1 mps 767 mmHg 78%
18:00 +8°C° 0 mm 1 mps 767 mmHg 81%
19:00 +7°C° 0 mm 1 mps 767 mmHg 84%
20:00 +7°C° 0 mm 1 mps 767 mmHg 86%
21:00 +6°C° 0 mm 1 mps 767 mmHg 88%
22:00 +6°C° 0 mm 1 mps 767 mmHg 89%
23:00 +6°C° 0 mm 1 mps 767 mmHg 91%

Day after tomorrow, 1 October, Friday

Time Temperature Precipitation Wind Pressure Humidity
00:00 +5°C° 0 mm 1 mps 767 mmHg 92%
01:00 +5°C° 0 mm 1 mps 767 mmHg 92%
02:00 +5°C° 0 mm 1 mps 767 mmHg 93%
03:00 +4°C° 0 mm 1 mps 767 mmHg 93%
04:00 +4°C° 0 mm 1 mps 767 mmHg 93%
05:00 +4°C° 0 mm 1 mps 767 mmHg 93%
06:00 +5°C° 0 mm 1 mps 767 mmHg 90%
07:00 +6°C° 0 mm 1 mps 767 mmHg 86%
08:00 +7°C° 0 mm 1 mps 767 mmHg 82%
09:00 +8°C° 0 mm 1 mps 767 mmHg 76%
10:00 +10°C° 0 mm 1 mps 766 mmHg 70%
11:00 +10°C° 0 mm 2 mps 766 mmHg 64%
12:00 +12°C° 0 mm 2 mps 766 mmHg 62%
13:00 +12°C° 0 mm 2 mps 766 mmHg 60%
14:00 +13°C° 0 mm 2 mps 766 mmHg 58%
15:00 +10°C° 0 mm 2 mps 766 mmHg 65%
16:00 +9°C° 0 mm 2 mps 765 mmHg 73%
17:00 +9°C° 0 mm 1 mps 765 mmHg 80%
18:00 +8°C° 0 mm 1 mps 765 mmHg 83%
19:00 +7°C° 0 mm 1 mps 765 mmHg 86%
20:00 +7°C° 0 mm 1 mps 765 mmHg 89%
21:00 +7°C° 0 mm 1 mps 765 mmHg 88%
22:00 +8°C° 0 mm 1 mps 765 mmHg 86%
23:00 +8°C° 0 mm 1 mps 765 mmHg 85%

2 October, Saturday

Time Temperature Precipitation Wind Pressure Humidity
00:00 +8°C° 0 mm 1 mps 765 mmHg 86%
01:00 +8°C° 0 mm 1 mps 765 mmHg 87%
02:00 +8°C° 0 mm 1 mps 765 mmHg 87%
03:00 +8°C° 0 mm 1 mps 765 mmHg 88%
04:00 +8°C° 0 mm 1 mps 765 mmHg 89%
05:00 +8°C° 0 mm 1 mps 765 mmHg 90%
06:00 +9°C° 0 mm 1 mps 765 mmHg 89%
07:00 +9°C° 0 mm 1 mps 765 mmHg 88%
08:00 +9°C° 0 mm 1 mps 765 mmHg 87%
09:00 +10°C° 0 mm 1 mps 765 mmHg 83%
10:00 +11°C° 0 mm 1 mps 765 mmHg 79%
11:00 +12°C° 0 mm 1 mps 765 mmHg 75%
12:00 +13°C° 0 mm 1 mps 765 mmHg 73%
13:00 +13°C° 0 mm 1 mps 765 mmHg 71%
14:00 +13°C° 0 mm 2 mps 765 mmHg 69%
15:00 +12°C° 0 mm 1 mps 765 mmHg 75%
16:00 +12°C° 0 mm 1 mps 765 mmHg 80%
17:00 +11°C° 0 mm 1 mps 765 mmHg 86%
18:00 +10°C° 0 mm 1 mps 765 mmHg 89%
19:00 +10°C° 0 mm 1 mps 765 mmHg 91%
20:00 +9°C° 0 mm 1 mps 765 mmHg 94%
21:00 +9°C° 0 mm 1 mps 765 mmHg 94%
22:00 +9°C° 0 mm 1 mps 765 mmHg 94%
23:00 +8°C° 0 mm 1 mps 765 mmHg 94%

3 October, Sunday

Time Temperature Precipitation Wind Pressure Humidity
00:00 +8°C° 0 mm 1 mps 765 mmHg 94%
01:00 +8°C° 0 mm 1 mps 765 mmHg 94%
02:00 +8°C° 0 mm 1 mps 765 mmHg 95%
03:00 +8°C° 0 mm 1 mps 765 mmHg 95%
04:00 +7°C° 0 mm 1 mps 765 mmHg 95%
05:00 +7°C° 0 mm 1 mps 765 mmHg 95%
06:00 +8°C° 0 mm 1 mps 765 mmHg 92%
07:00 +8°C° 0 mm 1 mps 765 mmHg 88%
08:00 +9°C° 0 mm 1 mps 765 mmHg 85%
09:00 +9°C° 0 mm 2 mps 765 mmHg 78%
10:00 +10°C° 0 mm 2 mps 765 mmHg 71%
11:00 +12°C° 0 mm 2 mps 764 mmHg 64%
12:00 +13°C° 0 mm 2 mps 764 mmHg 63%
13:00 +13°C° 0 mm 2 mps 764 mmHg 61%
14:00 +13°C° 0 mm 3 mps 764 mmHg 60%
15:00 +12°C° 0 mm 2 mps 764 mmHg 68%
16:00 +10°C° 0 mm 2 mps 764 mmHg 76%
17:00 +8°C° 0 mm 2 mps 764 mmHg 84%
18:00 +8°C° 0 mm 2 mps 764 mmHg 87%
19:00 +7°C° 0 mm 2 mps 764 mmHg 90%
20:00 +7°C° 0 mm 2 mps 764 mmHg 93%
21:00 +6°C° 0 mm 2 mps 764 mmHg 93%
22:00 +6°C° 0 mm 2 mps 764 mmHg 94%
23:00 +6°C° 0 mm 2 mps 764 mmHg 95%

4 October, Monday

Time Temperature Precipitation Wind Pressure Humidity
00:00 +6°C° 0 mm 2 mps 764 mmHg 95%
01:00 +6°C° 0 mm 2 mps 764 mmHg 95%
02:00 +6°C° 0 mm 2 mps 763 mmHg 95%
03:00 +6°C° 0 mm 2 mps 763 mmHg 95%
04:00 +6°C° 0 mm 2 mps 764 mmHg 95%
05:00 +6°C° 0 mm 2 mps 764 mmHg 95%
06:00 +6°C° 0 mm 2 mps 764 mmHg 92%
07:00 +7°C° 0 mm 2 mps 763 mmHg 89%
08:00 +8°C° 0 mm 3 mps 763 mmHg 87%
09:00 +9°C° 0 mm 3 mps 763 mmHg 80%
10:00 +11°C° 0 mm 4 mps 763 mmHg 73%
11:00 +12°C° 0 mm 4 mps 763 mmHg 66%
12:00 +13°C° 0 mm 4 mps 763 mmHg 65%
13:00 +13°C° 0 mm 4 mps 762 mmHg 64%
14:00 +13°C° 0 mm 4 mps 762 mmHg 63%
15:00 +13°C° 0 mm 4 mps 762 mmHg 67%
16:00 +12°C° 0 mm 4 mps 762 mmHg 71%
17:00 +11°C° 0 mm 4 mps 762 mmHg 74%
18:00 +11°C° 0 mm 4 mps 761 mmHg 77%
19:00 +10°C° 0 mm 4 mps 761 mmHg 79%
20:00 +9°C° 0 mm 5 mps 761 mmHg 81%
21:00 +8°C° 0 mm 4 mps 761 mmHg 83%
22:00 +8°C° 0 mm 4 mps 761 mmHg 84%
23:00 +8°C° 0 mm 4 mps 761 mmHg 86%
Show more

We Need Your Consent

Meteoprog and our Service Providers may store and access personal data such as cookies, device identifiers or other similar technologies on your device and process such data to personalise content and ads, as well as provide social media features and to analyse the traffic.

  • Store and/or access information on your device

    Cookies, device identifiers or other information can be stored or accessed on your device for the purposes indicated above.

  • Personalised ads and content, ad and content measurement, audience insights, and products development

    Ads and content can be personalised based on a profile. More data can be added to better personalise ads and content. Ad and content performance can be measured. Insights about the audience who saw the ads and content can be derived. Such data can be used to develop or improve user’s experience, systems and software.

By clicking ‘I Agree’ you will allow the use of indicated cookies, device identifiers, web beacons or other similar technologies. Your settings can be changed in the browser on your device.

For certain purposes, legitimate interests may be relied on, rather than consent. You can read more about this in our Privacy and Cookie Policy.